| time (UTC) | temp F | wind direction | speed knots | gust knots | rain 1hr in | rain 24hr in | rain mn in | humidity % | barometer mb |
| 20260509104943 | 43 | 136 | 1.7 | 5.2 | 0.00 | 0.03 | 0.00 | 84 | 1007.6 |
| 20260509104442 | 43 | 130 | 1.7 | 4.3 | 0.00 | 0.03 | 0.00 | 85 | 1007.7 |
| 20260509103939 | 43 | 151 | 1.7 | 4.3 | 0.00 | 0.03 | 0.00 | 85 | 1007.6 |
| 20260509103438 | 43 | 107 | 1.7 | 2.6 | 0.00 | 0.03 | 0.00 | 86 | 1007.6 |
| 20260509103202 | 43 | 148 | 1.7 | 3.5 | 0.00 | 0.03 | 0.00 | 86 | 1007.6 |
| 20260509102439 | 43 | 140 | 1.7 | 3.5 | 0.00 | 0.03 | 0.00 | 86 | 1007.5 |
| 20260509101940 | 43 | 122 | 1.7 | 4.3 | 0.00 | 0.03 | 0.00 | 86 | 1007.5 |
| 20260509101441 | 42 | 120 | 1.7 | 4.3 | 0.00 | 0.03 | 0.00 | 87 | 1007.5 |
| 20260509100940 | 42 | 128 | 1.7 | 3.5 | 0.00 | 0.03 | 0.00 | 88 | 1007.5 |
| 20260509100658 | 42 | 132 | 1.7 | 2.6 | 0.00 | 0.03 | 0.00 | 89 | 1007.6 |
| 20260509095940 | 42 | 134 | 0.9 | 2.6 | 0.00 | 0.03 | 0.00 | 89 | 1007.6 |
| 20260509095440 | 42 | 146 | 0.9 | 3.5 | 0.00 | 0.03 | 0.00 | 88 | 1007.6 |
| 20260509094940 | 42 | 153 | 1.7 | 3.5 | 0.00 | 0.03 | 0.00 | 89 | 1007.6 |
| 20260509094441 | 42 | 192 | 1.7 | 3.5 | 0.00 | 0.03 | 0.00 | 89 | 1007.5 |
| 20260509093941 | 42 | 0 | 1.7 | 2.6 | 0.00 | 0.03 | 0.00 | 89 | 1007.5 |
| 20260509093438 | 42 | 129 | 1.7 | 2.6 | 0.00 | 0.03 | 0.00 | 89 | 1007.5 |
| 20260509092937 | 42 | 0 | 0.9 | 2.6 | 0.00 | 0.03 | 0.00 | 90 | 1007.5 |
| 20260509092435 | 42 | 139 | 1.7 | 2.6 | 0.00 | 0.03 | 0.00 | 90 | 1007.4 |
| 20260509091935 | 42 | 171 | 1.7 | 2.6 | 0.00 | 0.03 | 0.00 | 90 | 1007.4 |
| 20260509091435 | 42 | 148 | 1.7 | 3.5 | 0.00 | 0.03 | 0.00 | 90 | 1007.4 |
| 20260509090934 | 42 | 187 | 1.7 | 4.3 | 0.00 | 0.03 | 0.00 | 90 | 1007.4 |
| 20260509090435 | 42 | 165 | 1.7 | 4.3 | 0.00 | 0.03 | 0.00 | 90 | 1007.5 |
| 20260509085935 | 42 | 159 | 1.7 | 2.6 | 0.00 | 0.03 | 0.00 | 89 | 1007.6 |
| 20260509085435 | 42 | 189 | 1.7 | 2.6 | 0.00 | 0.03 | 0.00 | 89 | 1007.6 |
| 20260509085150 | 42 | 121 | 1.7 | 3.5 | 0.00 | 0.03 | 0.00 | 88 | 1007.5 |
| 20260509084433 | 42 | 148 | 1.7 | 3.5 | 0.00 | 0.03 | 0.00 | 87 | 1007.6 |
| 20260509083933 | 42 | 164 | 1.7 | 3.5 | 0.00 | 0.03 | 0.00 | 86 | 1007.7 |
| 20260509083433 | 41 | 150 | 1.7 | 2.6 | 0.00 | 0.03 | 0.00 | 86 | 1007.9 |
| 20260509082933 | 41 | 167 | 1.7 | 2.6 | 0.00 | 0.03 | 0.00 | 86 | 1008.0 |
| 20260509082433 | 41 | 135 | 0.9 | 1.7 | 0.00 | 0.03 | 0.00 | 85 | 1008.0 |
| 20260509081933 | 41 | 132 | 0.9 | 1.7 | 0.00 | 0.03 | 0.00 | 85 | 1008.0 |
| 20260509081433 | 41 | 157 | 0.9 | 2.6 | 0.00 | 0.03 | 0.00 | 84 | 1008.1 |
| 20260509080934 | 41 | 147 | 0.9 | 2.6 | 0.00 | 0.03 | 0.00 | 83 | 1008.1 |
| 20260509080434 | 41 | 143 | 0.9 | 1.7 | 0.00 | 0.03 | 0.00 | 83 | 1008.1 |
| 20260509075933 | 41 | 138 | 0.9 | 1.7 | 0.00 | 0.03 | 0.00 | 82 | 1008.2 |
| 20260509075432 | 41 | 105 | 0.0 | 1.7 | 0.00 | 0.03 | 0.00 | 82 | 1008.2 |
| 20260509074934 | 41 | 137 | 0.0 | 0.9 | 0.00 | 0.03 | 0.00 | 81 | 1008.2 |
| 20260509074434 | 41 | 136 | 0.0 | 0.9 | 0.00 | 0.03 | 0.00 | 80 | 1008.2 |
| 20260509073933 | 41 | 144 | 0.0 | 0.9 | 0.00 | 0.03 | 0.00 | 79 | 1008.3 |
| 20260509073740 | 42 | 199 | 0.0 | 1.7 | 0.00 | 0.03 | 0.00 | 79 | 1008.3 |
| 20260509073711 | 42 | 187 | 0.9 | 1.7 | 0.00 | 0.03 | 0.00 | 78 | 1008.3 |
| 20260509072432 | 42 | 0 | 0.0 | 1.7 | 0.00 | 0.03 | 0.00 | 78 | 1008.3 |
| 20260509071929 | 42 | 0 | 0.9 | 1.7 | 0.00 | 0.03 | 0.00 | 78 | 1008.3 |
| 20260509071425 | 42 | 150 | 0.9 | 1.7 | 0.00 | 0.03 | 0.00 | 78 | 1008.4 |
| 20260509070928 | 42 | 163 | 0.0 | 1.7 | 0.00 | 0.03 | 0.00 | 79 | 1008.4 |
| 20260509070429 | 42 | 0 | 0.0 | 1.7 | 0.00 | 0.03 | 0.00 | 79 | 1008.5 |
| 20260509070420 | 42 | 131 | 0.0 | 1.7 | 0.00 | 0.03 | 0.00 | 78 | 1008.5 |
| 20260509065427 | 42 | 111 | 0.0 | 1.7 | 0.00 | 0.03 | 0.00 | 77 | 1008.5 |
| 20260509064927 | 42 | 131 | 0.9 | 1.7 | 0.00 | 0.03 | 0.00 | 77 | 1008.5 |
| 20260509064426 | 42 | 131 | 0.9 | 1.7 | 0.00 | 0.03 | 0.00 | 76 | 1008.6 |
| 20260509063924 | 42 | 171 | 0.9 | 1.7 | 0.00 | 0.03 | 0.00 | 76 | 1008.6 |
| 20260509063424 | 42 | 134 | 0.9 | 2.6 | 0.00 | 0.03 | 0.00 | 76 | 1008.7 |
| 20260509062924 | 42 | 152 | 0.9 | 2.6 | 0.00 | 0.03 | 0.00 | 77 | 1008.8 |
| 20260509062426 | 41 | 133 | 0.9 | 1.7 | 0.00 | 0.03 | 0.00 | 79 | 1008.8 |
| 20260509061925 | 40 | 161 | 0.9 | 1.7 | 0.00 | 0.03 | 0.00 | 82 | 1008.8 |
| 20260509061644 | 40 | 141 | 0.9 | 1.7 | 0.00 | 0.03 | 0.00 | 84 | 1008.9 |
| 20260509060926 | 40 | 0 | 0.0 | 1.7 | 0.00 | 0.03 | 0.00 | 86 | 1009.0 |
| 20260509060425 | 39 | 225 | 0.0 | 1.7 | 0.00 | 0.03 | 0.00 | 86 | 1009.0 |
| 20260509055927 | 39 | 109 | 0.9 | 2.6 | 0.00 | 0.03 | 0.00 | 88 | 1009.0 |
| 20260509055426 | 39 | 0 | 0.9 | 2.6 | 0.00 | 0.03 | 0.00 | 90 | 1009.1 |
| 20260509054923 | 38 | 143 | 0.9 | 2.6 | 0.00 | 0.03 | 0.00 | 93 | 1009.2 |
| 20260509054423 | 37 | 0 | 1.7 | 3.5 | 0.00 | 0.03 | 0.00 | 93 | 1009.3 |
| 20260509053920 | 38 | 128 | 0.9 | 3.5 | 0.00 | 0.03 | 0.00 | 93 | 1009.3 |
| 20260509053643 | 37 | 301 | 0.9 | 3.5 | 0.00 | 0.03 | 0.00 | 94 | 1009.4 |
| 20260509052917 | 37 | 187 | 1.7 | 3.5 | 0.00 | 0.03 | 0.00 | 94 | 1009.4 |
| 20260509052418 | 37 | 150 | 1.7 | 4.3 | 0.00 | 0.03 | 0.00 | 94 | 1009.6 |
| 20260509051918 | 37 | 136 | 1.7 | 4.3 | 0.00 | 0.03 | 0.00 | 95 | 1009.6 |
| 20260509051640 | 37 | 143 | 1.7 | 3.5 | 0.00 | 0.03 | 0.00 | 94 | 1009.7 |
| 20260509050917 | 37 | 124 | 1.7 | 3.5 | 0.00 | 0.03 | 0.00 | 94 | 1009.7 |
| 20260509050418 | 37 | 157 | 1.7 | 3.5 | 0.00 | 0.03 | 0.00 | 94 | 1009.7 |
| 20260509045918 | 37 | 141 | 0.9 | 3.5 | 0.00 | 0.03 | 0.00 | 94 | 1009.7 |
| 20260509045417 | 37 | 0 | 0.9 | 3.5 | 0.00 | 0.03 | 0.00 | 94 | 1009.8 |
| 20260509044916 | 38 | 152 | 0.9 | 2.6 | 0.00 | 0.03 | 0.00 | 93 | 1009.8 |
| 20260509044415 | 38 | 153 | 0.0 | 2.6 | 0.00 | 0.03 | 0.00 | 93 | 1009.9 |
| 20260509043915 | 38 | 0 | 0.0 | 2.6 | 0.00 | 0.03 | 0.00 | 94 | 1010.0 |
| 20260509043413 | 38 | 274 | 0.0 | 2.6 | 0.00 | 0.05 | 0.00 | 94 | 1010.0 |
| 20260509042912 | 38 | 304 | 0.0 | 0.9 | 0.00 | 0.06 | 0.00 | 93 | 1009.9 |
| 20260509042412 | 38 | 0 | 0.0 | 1.7 | 0.00 | 0.06 | 0.00 | 93 | 1009.9 |
| 20260509041912 | 38 | 0 | 0.0 | 1.7 | 0.00 | 0.06 | 0.00 | 92 | 1009.8 |
| 20260509041412 | 38 | 0 | 0.0 | 3.5 | 0.00 | 0.06 | 0.00 | 91 | 1009.8 |
| 20260509040911 | 38 | 0 | 0.0 | 3.5 | 0.00 | 0.06 | 0.00 | 91 | 1009.9 |
| 20260509040412 | 38 | 0 | 0.0 | 0.9 | 0.00 | 0.06 | 0.00 | 91 | 1009.9 |
| 20260509035911 | 39 | 0 | 0.0 | 0.9 | 0.00 | 0.06 | 0.06 | 90 | 1010.0 |
| 20260509035412 | 39 | 0 | 0.0 | 2.6 | 0.00 | 0.06 | 0.06 | 90 | 1010.0 |
| 20260509034911 | 39 | 310 | 0.9 | 2.6 | 0.00 | 0.06 | 0.06 | 91 | 1010.0 |
| 20260509034411 | 39 | 304 | 0.0 | 1.7 | 0.00 | 0.06 | 0.06 | 90 | 1010.0 |
| 20260509033911 | 39 | 323 | 0.0 | 1.7 | 0.00 | 0.06 | 0.06 | 89 | 1009.9 |
| 20260509033411 | 39 | 144 | 0.0 | 1.7 | 0.00 | 0.06 | 0.06 | 89 | 1009.9 |
| 20260509032910 | 39 | 0 | 0.0 | 0.9 | 0.00 | 0.06 | 0.06 | 89 | 1010.0 |
| 20260509032410 | 39 | 0 | 0.0 | 0.9 | 0.00 | 0.06 | 0.06 | 89 | 1010.0 |
| 20260509031908 | 39 | 12 | 0.0 | 0.9 | 0.00 | 0.06 | 0.06 | 88 | 1010.0 |
| 20260509031408 | 40 | 0 | 0.0 | 1.7 | 0.00 | 0.06 | 0.06 | 87 | 1010.0 |
| 20260509030908 | 40 | 345 | 0.0 | 1.7 | 0.00 | 0.06 | 0.06 | 87 | 1010.0 |
| 20260509030407 | 40 | 0 | 0.0 | 0.9 | 0.00 | 0.06 | 0.06 | 86 | 1010.0 |
| 20260509025906 | 41 | 0 | 0.0 | 0.9 | 0.00 | 0.06 | 0.06 | 85 | 1010.0 |
| 20260509025407 | 41 | 0 | 0.0 | 0.9 | 0.00 | 0.06 | 0.06 | 85 | 1010.0 |
| 20260509025129 | 41 | 0 | 0.0 | 0.9 | 0.00 | 0.06 | 0.06 | 84 | 1010.0 |
| 20260509024633 | 41 | 0 | 0.0 | 0.9 | 0.00 | 0.06 | 0.06 | 84 | 1010.0 |
| 20260509023907 | 42 | 137 | 0.0 | 0.9 | 0.00 | 0.06 | 0.06 | 83 | 1010.1 |
| 20260509023407 | 42 | 0 | 0.0 | 0.9 | 0.00 | 0.06 | 0.06 | 83 | 1010.1 |
| 20260509022910 | 42 | 0 | 0.0 | 1.7 | 0.00 | 0.06 | 0.06 | 83 | 1010.1 |
| 20260509022410 | 42 | 0 | 0.9 | 1.7 | 0.00 | 0.06 | 0.06 | 82 | 1010.1 |
| 20260509021909 | 42 | 0 | 0.9 | 1.7 | 0.00 | 0.06 | 0.06 | 82 | 1010.1 |
| 20260509021406 | 43 | 137 | 0.0 | 1.7 | 0.00 | 0.06 | 0.06 | 82 | 1010.1 |
| 20260509020906 | 43 | 131 | 0.0 | 0.9 | 0.00 | 0.06 | 0.06 | 82 | 1010.2 |
| 20260509020405 | 44 | 96 | 0.0 | 3.5 | 0.00 | 0.06 | 0.06 | 81 | 1010.2 |
| 20260509015905 | 44 | 0 | 0.0 | 3.5 | 0.00 | 0.06 | 0.06 | 79 | 1010.2 |
| 20260509015406 | 44 | 0 | 0.9 | 1.7 | 0.00 | 0.06 | 0.06 | 79 | 1010.2 |
| 20260509015139 | 45 | 197 | 0.9 | 3.5 | 0.00 | 0.06 | 0.06 | 78 | 1010.1 |
| 20260509014405 | 45 | 150 | 0.9 | 3.5 | 0.00 | 0.06 | 0.06 | 78 | 1010.1 |
| 20260509013903 | 45 | 130 | 0.9 | 1.7 | 0.00 | 0.06 | 0.06 | 75 | 1010.1 |
| 20260509013400 | 45 | 166 | 0.9 | 1.7 | 0.00 | 0.06 | 0.06 | 76 | 1010.1 |
| 20260509012901 | 46 | 0 | 0.0 | 0.9 | 0.00 | 0.06 | 0.06 | 76 | 1010.0 |
| 20260509012401 | 46 | 0 | 0.0 | 0.9 | 0.00 | 0.06 | 0.06 | 76 | 1010.0 |
| 20260509011856 | 47 | 0 | 0.0 | 0.9 | 0.00 | 0.06 | 0.06 | 74 | 1009.9 |
| 20260509011357 | 47 | 0 | 0.0 | 0.9 | 0.00 | 0.06 | 0.06 | 73 | 1009.8 |
| 20260509010857 | 47 | 274 | 0.0 | 0.0 | 0.00 | 0.06 | 0.06 | 72 | 1009.7 |
| 20260509010357 | 48 | 0 | 0.0 | 0.9 | 0.00 | 0.06 | 0.06 | 71 | 1009.6 |
| 20260509010050 | 49 | 105 | 0.0 | 1.7 | 0.00 | 0.06 | 0.06 | 70 | 1009.5 |
| 20260509005940 | 48 | 0 | 0.0 | 1.7 | 0.00 | 0.06 | 0.06 | 71 | 1009.5 |
| 20260509005102 | 49 | 143 | 0.0 | 0.9 | 0.00 | 0.06 | 0.06 | 66 | 1009.4 |
| 20260509004342 | 50 | 0 | 0.0 | 0.9 | 0.00 | 0.06 | 0.06 | 65 | 1009.3 |
| 20260509003842 | 51 | 0 | 0.0 | 1.7 | 0.00 | 0.06 | 0.06 | 64 | 1009.2 |
| 20260509003342 | 51 | 0 | 0.9 | 2.6 | 0.00 | 0.06 | 0.06 | 61 | 1009.2 |
| 20260509002841 | 52 | 102 | 1.7 | 2.6 | 0.00 | 0.06 | 0.06 | 59 | 1009.1 |
| 20260509002341 | 52 | 92 | 0.9 | 2.6 | 0.00 | 0.06 | 0.06 | 57 | 1009.1 |
| 20260509002100 | 52 | 127 | 0.9 | 1.7 | 0.00 | 0.06 | 0.06 | 57 | 1009.1 |
| 20260509001341 | 53 | 99 | 0.9 | 1.7 | 0.00 | 0.06 | 0.06 | 56 | 1009.1 |
| 20260509000842 | 53 | 112 | 0.9 | 4.3 | 0.00 | 0.06 | 0.06 | 55 | 1009.1 |
| 20260509000341 | 53 | 54 | 0.9 | 4.3 | 0.00 | 0.06 | 0.06 | 54 | 1009.1 |
| 20260509000103 | 54 | 35 | 0.9 | 2.6 | 0.00 | 0.06 | 0.06 | 52 | 1009.0 |
| 20260508235342 | 54 | 34 | 0.9 | 2.6 | 0.00 | 0.06 | 0.06 | 50 | 1009.0 |
| 20260508234841 | 55 | 0 | 0.9 | 2.6 | 0.00 | 0.06 | 0.06 | 49 | 1008.9 |
| 20260508234337 | 55 | 134 | 0.9 | 3.5 | 0.00 | 0.06 | 0.06 | 48 | 1008.8 |
| 20260508233834 | 55 | 43 | 1.7 | 3.5 | 0.00 | 0.06 | 0.06 | 47 | 1008.8 |
| 20260508233558 | 56 | 15 | 1.7 | 3.5 | 0.00 | 0.06 | 0.06 | 47 | 1008.7 |
| 20260508232833 | 56 | 15 | 1.7 | 5.2 | 0.00 | 0.06 | 0.06 | 46 | 1008.7 |
| 20260508232333 | 56 | 222 | 2.6 | 6.1 | 0.00 | 0.06 | 0.06 | 46 | 1008.7 |
| 20260508231833 | 57 | 19 | 1.7 | 6.1 | 0.00 | 0.06 | 0.06 | 45 | 1008.7 |
| 20260508231333 | 57 | 28 | 1.7 | 4.3 | 0.00 | 0.06 | 0.06 | 45 | 1008.7 |
| 20260508230833 | 57 | 42 | 2.6 | 6.1 | 0.00 | 0.06 | 0.06 | 44 | 1008.7 |
| 20260508230333 | 58 | 42 | 2.6 | 6.1 | 0.00 | 0.06 | 0.06 | 44 | 1008.7 |
| 20260508225834 | 58 | 5 | 1.7 | 5.2 | 0.00 | 0.06 | 0.06 | 43 | 1008.7 |
| 20260508225333 | 58 | 35 | 1.7 | 5.2 | 0.00 | 0.06 | 0.06 | 42 | 1008.7 |
| 20260508224834 | 58 | 78 | 1.7 | 6.1 | 0.00 | 0.06 | 0.06 | 43 | 1008.7 |
| 20260508224333 | 57 | 24 | 2.6 | 7.8 | 0.00 | 0.06 | 0.06 | 44 | 1008.7 |
| 20260508223834 | 57 | 38 | 3.5 | 7.8 | 0.00 | 0.06 | 0.06 | 44 | 1008.7 |
| 20260508223333 | 58 | 111 | 2.6 | 7.8 | 0.00 | 0.06 | 0.06 | 44 | 1008.6 |
| 20260508222833 | 58 | 35 | 2.6 | 5.2 | 0.00 | 0.06 | 0.06 | 42 | 1008.6 |
| 20260508222601 | 58 | 59 | 1.7 | 5.2 | 0.00 | 0.06 | 0.06 | 41 | 1008.6 |
| 20260508222059 | 57 | 24 | 1.7 | 5.2 | 0.00 | 0.06 | 0.06 | 39 | 1008.6 |
| 20260508221334 | 57 | 87 | 2.6 | 7.0 | 0.00 | 0.06 | 0.06 | 38 | 1008.6 |
| 20260508220833 | 57 | 282 | 2.6 | 7.0 | 0.00 | 0.06 | 0.06 | 40 | 1008.6 |
| 20260508220333 | 56 | 287 | 2.6 | 6.1 | 0.00 | 0.06 | 0.06 | 41 | 1008.7 |
| 20260508215833 | 56 | 255 | 3.5 | 7.8 | 0.00 | 0.06 | 0.06 | 39 | 1008.7 |
| 20260508215333 | 56 | 71 | 3.5 | 7.8 | 0.00 | 0.06 | 0.06 | 40 | 1008.7 |
| 20260508215100 | 56 | 272 | 4.3 | 10.4 | 0.00 | 0.06 | 0.06 | 39 | 1008.7 |
| 20260508214332 | 56 | 39 | 5.2 | 12.2 | 0.00 | 0.06 | 0.06 | 39 | 1008.8 |
| 20260508213832 | 56 | 284 | 4.3 | 12.2 | 0.00 | 0.06 | 0.06 | 40 | 1008.8 |
| 20260508213331 | 56 | 306 | 4.3 | 12.2 | 0.00 | 0.06 | 0.06 | 41 | 1008.9 |
| 20260508212832 | 55 | 311 | 4.3 | 9.6 | 0.00 | 0.06 | 0.06 | 42 | 1008.9 |
| 20260508212332 | 55 | 245 | 4.3 | 9.6 | 0.00 | 0.06 | 0.06 | 40 | 1009.0 |
| 20260508211832 | 55 | 276 | 4.3 | 8.7 | 0.00 | 0.06 | 0.06 | 41 | 1008.9 |
| 20260508211332 | 56 | 268 | 3.5 | 8.7 | 0.00 | 0.06 | 0.06 | 42 | 1008.9 |
| 20260508210833 | 56 | 341 | 2.6 | 8.7 | 0.00 | 0.06 | 0.06 | 41 | 1008.9 |
| 20260508210332 | 56 | 247 | 2.6 | 7.8 | 0.00 | 0.06 | 0.06 | 43 | 1009.0 |
| 20260508205832 | 55 | 108 | 2.6 | 7.8 | 0.00 | 0.06 | 0.06 | 44 | 1009.0 |
| 20260508205332 | 55 | 78 | 2.6 | 6.1 | 0.00 | 0.06 | 0.06 | 44 | 1009.1 |
| 20260508204832 | 55 | 31 | 2.6 | 7.8 | 0.00 | 0.06 | 0.06 | 45 | 1009.1 |
| 20260508204551 | 54 | 330 | 2.6 | 7.8 | 0.00 | 0.06 | 0.06 | 45 | 1009.2 |
| 20260508203829 | 54 | 324 | 3.5 | 7.8 | 0.00 | 0.06 | 0.06 | 45 | 1009.2 |
| 20260508203547 | 54 | 347 | 3.5 | 7.0 | 0.00 | 0.06 | 0.06 | 47 | 1009.3 |
| 20260508202829 | 54 | 17 | 3.5 | 7.0 | 0.00 | 0.06 | 0.06 | 46 | 1009.4 |
| 20260508202329 | 54 | 308 | 3.5 | 7.8 | 0.00 | 0.06 | 0.06 | 46 | 1009.5 |
| 20260508202309 | 55 | 298 | 4.3 | 7.8 | 0.00 | 0.06 | 0.06 | 45 | 1009.5 |
| 20260508201329 | 55 | 211 | 4.3 | 8.7 | 0.00 | 0.06 | 0.06 | 46 | 1009.4 |
| 20260508200829 | 55 | 283 | 4.3 | 8.7 | 0.00 | 0.06 | 0.06 | 46 | 1009.4 |
| 20260508200330 | 55 | 227 | 3.5 | 8.7 | 0.00 | 0.06 | 0.06 | 44 | 1009.5 |
| 20260508195830 | 55 | 268 | 3.5 | 8.7 | 0.00 | 0.06 | 0.06 | 45 | 1009.5 |
| 20260508195329 | 55 | 350 | 3.5 | 7.8 | 0.00 | 0.06 | 0.06 | 45 | 1009.5 |
| 20260508195100 | 55 | 229 | 3.5 | 8.7 | 0.00 | 0.06 | 0.06 | 45 | 1009.7 |
| 20260508194554 | 54 | 324 | 4.3 | 12.2 | 0.00 | 0.06 | 0.06 | 47 | 1009.8 |
| 20260508193828 | 54 | 349 | 5.2 | 12.2 | 0.00 | 0.06 | 0.06 | 46 | 1009.8 |
| 20260508193328 | 54 | 316 | 4.3 | 12.2 | 0.00 | 0.06 | 0.06 | 47 | 1009.9 |
| 20260508192828 | 55 | 287 | 2.6 | 11.3 | 0.00 | 0.06 | 0.06 | 45 | 1009.9 |
| 20260508192328 | 54 | 253 | 2.6 | 8.7 | 0.00 | 0.06 | 0.06 | 48 | 1010.0 |
| 20260508191828 | 53 | 299 | 3.5 | 8.7 | 0.00 | 0.06 | 0.06 | 50 | 1010.1 |
| 20260508191329 | 53 | 314 | 3.5 | 8.7 | 0.00 | 0.06 | 0.06 | 49 | 1010.1 |
| 20260508190828 | 54 | 339 | 3.5 | 8.7 | 0.00 | 0.06 | 0.06 | 49 | 1010.0 |
| 20260508190328 | 53 | 359 | 3.5 | 7.8 | 0.00 | 0.06 | 0.06 | 50 | 1010.0 |
| 20260508185828 | 53 | 287 | 4.3 | 8.7 | 0.00 | 0.06 | 0.06 | 50 | 1010.0 |
| 20260508185325 | 53 | 44 | 3.5 | 8.7 | 0.00 | 0.06 | 0.06 | 49 | 1010.0 |
| 20260508184825 | 53 | 238 | 3.5 | 7.8 | 0.00 | 0.06 | 0.06 | 50 | 1010.0 |
| 20260508184325 | 53 | 246 | 4.3 | 9.6 | 0.00 | 0.06 | 0.06 | 55 | 1010.1 |
| 20260508183825 | 54 | 0 | 3.5 | 9.6 | 0.00 | 0.06 | 0.06 | 53 | 1010.1 |
| 20260508183547 | 53 | 341 | 3.5 | 8.7 | 0.00 | 0.06 | 0.06 | 53 | 1010.1 |
| 20260508182825 | 52 | 15 | 3.5 | 8.7 | 0.00 | 0.06 | 0.06 | 55 | 1010.2 |
| 20260508182554 | 52 | 261 | 5.2 | 11.3 | 0.00 | 0.06 | 0.06 | 53 | 1010.3 |
| 20260508181826 | 51 | 313 | 5.2 | 11.3 | 0.00 | 0.06 | 0.06 | 53 | 1010.3 |
| 20260508181325 | 51 | 302 | 4.3 | 10.4 | 0.00 | 0.06 | 0.06 | 54 | 1010.3 |
| 20260508180825 | 50 | 253 | 4.3 | 8.7 | 0.00 | 0.06 | 0.06 | 53 | 1010.4 |
| 20260508180325 | 50 | 291 | 3.5 | 7.8 | 0.00 | 0.06 | 0.06 | 58 | 1010.5 |
| 20260508175822 | 51 | 282 | 3.5 | 8.7 | 0.00 | 0.06 | 0.06 | 53 | 1010.5 |
| 20260508175548 | 51 | 191 | 4.3 | 8.7 | 0.00 | 0.06 | 0.06 | 53 | 1010.6 |
| 20260508174819 | 50 | 236 | 5.2 | 8.7 | 0.00 | 0.06 | 0.06 | 58 | 1010.7 |
| 20260508174320 | 50 | 262 | 5.2 | 9.6 | 0.00 | 0.06 | 0.06 | 56 | 1010.7 |
| 20260508173820 | 50 | 283 | 4.3 | 9.6 | 0.00 | 0.06 | 0.06 | 55 | 1010.7 |
| 20260508173321 | 50 | 296 | 5.2 | 9.6 | 0.00 | 0.06 | 0.06 | 58 | 1010.7 |
| 20260508172820 | 50 | 322 | 5.2 | 9.6 | 0.00 | 0.06 | 0.06 | 58 | 1010.8 |
| 20260508172813 | 49 | 309 | 3.5 | 7.8 | 0.00 | 0.06 | 0.06 | 60 | 1010.8 |
| 20260508171820 | 49 | 264 | 3.5 | 7.8 | 0.00 | 0.06 | 0.06 | 61 | 1010.8 |
| 20260508171321 | 48 | 231 | 2.6 | 6.1 | 0.00 | 0.06 | 0.06 | 60 | 1010.8 |
| 20260508170820 | 48 | 308 | 3.5 | 7.0 | 0.00 | 0.06 | 0.06 | 64 | 1011.0 |
| 20260508170320 | 48 | 113 | 2.6 | 7.0 | 0.00 | 0.06 | 0.06 | 65 | 1011.0 |
| 20260508165818 | 48 | 227 | 3.5 | 8.7 | 0.00 | 0.06 | 0.06 | 66 | 1011.1 |
| 20260508165315 | 48 | 309 | 4.3 | 8.7 | 0.00 | 0.06 | 0.06 | 64 | 1011.2 |
| 20260508164816 | 48 | 347 | 4.3 | 7.8 | 0.00 | 0.06 | 0.06 | 64 | 1011.2 |
| 20260508164316 | 48 | 280 | 4.3 | 8.7 | 0.00 | 0.06 | 0.06 | 62 | 1011.2 |
| 20260508163820 | 47 | 249 | 4.3 | 8.7 | 0.00 | 0.06 | 0.06 | 69 | 1011.3 |
| 20260508163816 | 48 | 214 | 4.3 | 8.7 | 0.00 | 0.06 | 0.06 | 68 | 1011.2 |
| 20260508163041 | 48 | 241 | 4.3 | 9.6 | 0.00 | 0.06 | 0.06 | 67 | 1011.4 |
| 20260508162317 | 48 | 254 | 5.2 | 9.6 | 0.00 | 0.06 | 0.06 | 68 | 1011.3 |
| 20260508161816 | 48 | 258 | 5.2 | 11.3 | 0.00 | 0.06 | 0.06 | 67 | 1011.4 |
| 20260508161316 | 47 | 231 | 4.3 | 11.3 | 0.00 | 0.06 | 0.06 | 70 | 1011.4 |
| 20260508160817 | 47 | 349 | 4.3 | 11.3 | 0.00 | 0.06 | 0.06 | 71 | 1011.4 |
| 20260508160312 | 47 | 230 | 4.3 | 11.3 | 0.00 | 0.06 | 0.06 | 72 | 1011.4 |
| 20260508155811 | 47 | 247 | 3.5 | 7.8 | 0.00 | 0.06 | 0.06 | 74 | 1011.4 |
| 20260508155307 | 47 | 257 | 4.3 | 10.4 | 0.00 | 0.06 | 0.06 | 72 | 1011.3 |
| 20260508154807 | 46 | 238 | 4.3 | 10.4 | 0.00 | 0.06 | 0.06 | 73 | 1011.3 |
| 20260508154531 | 46 | 272 | 4.3 | 9.6 | 0.00 | 0.06 | 0.06 | 71 | 1011.3 |
| 20260508153806 | 46 | 13 | 4.3 | 9.6 | 0.00 | 0.06 | 0.06 | 76 | 1011.3 |
| 20260508153306 | 46 | 284 | 4.3 | 9.6 | 0.00 | 0.06 | 0.06 | 76 | 1011.3 |
| 20260508152807 | 46 | 246 | 3.5 | 8.7 | 0.00 | 0.06 | 0.06 | 77 | 1011.2 |
| 20260508152307 | 46 | 300 | 3.5 | 8.7 | 0.00 | 0.06 | 0.06 | 79 | 1011.1 |
| 20260508151807 | 45 | 279 | 3.5 | 7.8 | 0.00 | 0.06 | 0.06 | 80 | 1011.2 |
| 20260508151307 | 45 | 325 | 4.3 | 7.8 | 0.00 | 0.06 | 0.06 | 80 | 1011.3 |
| 20260508150807 | 44 | 234 | 4.3 | 8.7 | 0.00 | 0.06 | 0.06 | 81 | 1011.2 |
| 20260508150307 | 44 | 245 | 3.5 | 8.7 | 0.00 | 0.06 | 0.06 | 83 | 1011.2 |
| 20260508145806 | 44 | 284 | 3.5 | 7.8 | 0.00 | 0.06 | 0.06 | 83 | 1011.3 |
| 20260508145306 | 43 | 272 | 3.5 | 7.8 | 0.00 | 0.06 | 0.06 | 86 | 1011.3 |
| 20260508144803 | 43 | 265 | 3.5 | 7.8 | 0.00 | 0.06 | 0.06 | 85 | 1011.4 |
| 20260508144302 | 43 | 311 | 3.5 | 7.8 | 0.00 | 0.06 | 0.06 | 87 | 1011.5 |
| 20260508143802 | 42 | 267 | 3.5 | 7.8 | 0.00 | 0.06 | 0.06 | 90 | 1011.6 |
| 20260508143302 | 42 | 285 | 3.5 | 7.8 | 0.00 | 0.06 | 0.06 | 90 | 1011.6 |
| 20260508142802 | 42 | 295 | 2.6 | 6.1 | 0.00 | 0.06 | 0.06 | 91 | 1011.7 |
| 20260508142306 | 42 | 285 | 2.6 | 5.2 | 0.00 | 0.06 | 0.06 | 91 | 1011.6 |
| 20260508141802 | 42 | 252 | 2.6 | 6.1 | 0.00 | 0.06 | 0.06 | 92 | 1011.7 |
| 20260508141302 | 41 | 258 | 3.5 | 7.0 | 0.00 | 0.06 | 0.06 | 91 | 1011.7 |
| 20260508140802 | 41 | 253 | 3.5 | 7.0 | 0.00 | 0.06 | 0.06 | 91 | 1011.7 |
| 20260508140302 | 42 | 259 | 3.5 | 7.8 | 0.01 | 0.06 | 0.06 | 92 | 1011.6 |
| 20260508135759 | 41 | 272 | 3.5 | 7.8 | 0.01 | 0.06 | 0.06 | 92 | 1011.7 |
| 20260508135259 | 41 | 256 | 2.6 | 7.8 | 0.01 | 0.06 | 0.06 | 92 | 1011.7 |
| 20260508134801 | 41 | 93 | 2.6 | 7.8 | 0.01 | 0.06 | 0.06 | 92 | 1011.7 |
| 20260508134300 | 41 | 303 | 2.6 | 7.8 | 0.01 | 0.06 | 0.06 | 91 | 1011.6 |
| 20260508133800 | 41 | 293 | 3.5 | 7.0 | 0.01 | 0.06 | 0.06 | 92 | 1011.6 |
| 20260508133300 | 41 | 297 | 4.3 | 8.7 | 0.02 | 0.06 | 0.06 | 92 | 1011.6 |
| 20260508133236 | 41 | 19 | 5.2 | 9.6 | 0.02 | 0.06 | 0.06 | 92 | 1011.7 |
| 20260508132305 | 41 | 336 | 5.2 | 10.4 | 0.02 | 0.06 | 0.06 | 91 | 1011.6 |
| 20260508131802 | 42 | 323 | 4.3 | 10.4 | 0.02 | 0.06 | 0.06 | 90 | 1011.6 |
| 20260508131301 | 42 | 306 | 3.5 | 7.8 | 0.02 | 0.06 | 0.06 | 91 | 1011.6 |
| 20260508130802 | 42 | 333 | 3.5 | 9.6 | 0.02 | 0.06 | 0.06 | 92 | 1011.5 |
| 20260508130258 | 42 | 320 | 1.7 | 9.6 | 0.02 | 0.06 | 0.06 | 96 | 1011.5 |
| 20260508125756 | 42 | 22 | 1.7 | 3.5 | 0.02 | 0.05 | 0.05 | 96 | 1011.5 |
| 20260508125256 | 42 | 291 | 1.7 | 4.3 | 0.02 | 0.05 | 0.05 | 96 | 1011.4 |
| 20260508124753 | 42 | 228 | 1.7 | 4.3 | 0.02 | 0.05 | 0.05 | 97 | 1011.4 |
| 20260508124252 | 41 | 272 | 1.7 | 3.5 | 0.01 | 0.05 | 0.05 | 98 | 1011.3 |
| 20260508123752 | 41 | 327 | 1.7 | 3.5 | 0.01 | 0.05 | 0.05 | 100 | 1011.3 |
| 20260508123252 | 41 | 358 | 1.7 | 5.2 | 0.01 | 0.04 | 0.04 | 99 | 1011.2 |
| 20260508122752 | 41 | 302 | 1.7 | 5.2 | 0.00 | 0.04 | 0.04 | 99 | 1011.1 |
| 20260508122253 | 41 | 249 | 0.9 | 4.3 | 0.00 | 0.04 | 0.04 | 99 | 1010.9 |
| 20260508122020 | 41 | 286 | 0.9 | 2.6 | 0.00 | 0.04 | 0.04 | 99 | 1010.8 |
| 20260508121253 | 40 | 0 | 0.0 | 1.7 | 0.00 | 0.04 | 0.04 | 99 | 1010.7 |
| 20260508121017 | 40 | 0 | 0.0 | 1.7 | 0.00 | 0.04 | 0.04 | 99 | 1010.7 |
| 20260508120252 | 40 | 26 | 0.9 | 1.7 | 0.00 | 0.04 | 0.04 | 99 | 1010.6 |
| 20260508115753 | 40 | 0 | 0.0 | 1.7 | 0.00 | 0.04 | 0.04 | 99 | 1010.6 |
| 20260508115253 | 40 | 6 | 0.0 | 0.9 | 0.00 | 0.04 | 0.04 | 99 | 1010.6 |
| 20260508115018 | 40 | 0 | 0.0 | 0.9 | 0.00 | 0.04 | 0.04 | 99 | 1010.5 |
| 20260508114252 | 40 | 0 | 0.0 | 1.7 | 0.00 | 0.04 | 0.04 | 99 | 1010.4 |
| 20260508113754 | 39 | 0 | 0.0 | 1.7 | 0.00 | 0.04 | 0.04 | 99 | 1010.3 |
| 20260508113248 | 39 | 0 | 0.9 | 1.7 | 0.00 | 0.04 | 0.04 | 99 | 1010.3 |
| 20260508112748 | 39 | 215 | 0.9 | 1.7 | 0.00 | 0.04 | 0.04 | 99 | 1010.3 |
| 20260508112512 | 39 | 0 | 0.9 | 1.7 | 0.00 | 0.04 | 0.04 | 99 | 1010.3 |
| 20260508111747 | 39 | 312 | 0.0 | 1.7 | 0.00 | 0.04 | 0.04 | 99 | 1010.2 |
| 20260508111247 | 39 | 121 | 0.0 | 0.9 | 0.00 | 0.04 | 0.04 | 99 | 1010.2 |
| 20260508110747 | 39 | 0 | 0.0 | 0.9 | 0.00 | 0.04 | 0.04 | 99 | 1010.2 |
| 20260508110246 | 39 | 0 | 0.0 | 0.9 | 0.00 | 0.04 | 0.04 | 99 | 1010.2 |
| 20260508105747 | 38 | 0 | 0.0 | 1.7 | 0.00 | 0.04 | 0.04 | 99 | 1010.1 |
| 20260508105246 | 38 | 0 | 0.9 | 1.7 | 0.00 | 0.04 | 0.04 | 99 | 1009.8 |